Weather History for Georgetown, DE

Change the Weather History Date:

Saturday, June 22, 2013

  Actual Average Record
Temperature  
Mean Temperature 72 °F 74 °F  
Max Temperature 83 °F 84 °F 97 °F (2012)
Min Temperature 60 °F 65 °F 48 °F (1992)
Degree Days  
Heating Degree Days 0 0  
Month to date heating degree days 0 10  
Since 1 June heating degree days 0 10  
Since 1 July heating degree days 4149 4403  
Cooling Degree Days 7 9  
Month to date cooling degree days 167 157  
Year to date cooling degree days 324 251  
Since 1 June cooling degree days 167 157  
Growing Degree Days 21 (Base 50)    
Moisture  
Dew Point 60 °F    
Average Humidity 71    
Maximum Humidity 97    
Minimum Humidity 45    
Precipitation  
Precipitation 0.00 in 0.15 in 2.47 in (1972)
Month to date precipitation 11.50 3.34  
Year to date precipitation 26.35 20.28  
Sea Level Pressure  
Sea Level Pressure 30.25 in    
Wind  
Wind Speed 4 mph (SE)    
Max Wind Speed 12 mph    
Max Gust Speed 16 mph    
Visibility 7 miles    
Events Fog    
T = Trace of Precipitation, MM = Missing Value Source: NWS Daily Summary

Daily Weather History Graph

Daily Weather History Graph

Search for Another Location

Airport:

Trip Planner

Search our weather history database for the weather conditions in past years. The results will help you decide how hot, cold, wet, or windy it might be!

Date:

Astronomy

Jun. 22, 2013 Rise Set
Actual Time 5:37 AM EDT 8:29 PM EDT
Civil Twilight 5:05 AM EDT 9:01 PM EDT
Nautical Twilight 4:25 AM EDT 9:41 PM EDT
Astronomical Twilight 3:38 AM EDT 10:28 PM EDT
Moon 7:42 PM EDT (6/22) 4:46 AM EDT (6/22)
Length of Visible Light 15h 56m
Length of Day
14h 52m
Waxing Gibbous, 99% of the Moon is Illuminated
Jun 22
Waxing Gibbous
Jun 23
Full
Jun 30
Last Quarter
Jul 8
New
Jul 15
First Quarter

Hourly Weather History & Observations

Time (EDT) Temp. Heat Index Dew Point Humidity Pressure Visibility Wind Dir Wind Speed Gust Speed Precip Events Conditions
12:54 AM 63.0 °F - 61.0 °F 93% 30.26 in 10.0 mi Calm Calm - N/A   Clear
1:54 AM 63.0 °F - 60.1 °F 90% 30.26 in 9.0 mi Calm Calm - N/A   Clear
2:54 AM 62.1 °F - 59.0 °F 90% 30.26 in 10.0 mi Calm Calm - N/A   Clear
3:54 AM 62.1 °F - 59.0 °F 90% 30.27 in 9.0 mi Calm Calm - N/A   Clear
4:08 AM 60.8 °F - 59.0 °F 94% 30.27 in 8.0 mi Calm Calm - N/A   Scattered Clouds
4:16 AM 60.8 °F - 59.0 °F 94% 30.27 in 2.5 mi Calm Calm - N/A   Mostly Cloudy
4:29 AM 60.8 °F - 59.0 °F 94% 30.27 in 3.0 mi Calm Calm - N/A   Overcast
4:54 AM 61.0 °F - 57.9 °F 90% 30.27 in 7.0 mi Calm Calm - N/A   Overcast
5:22 AM 60.8 °F - 57.2 °F 88% 30.27 in 1.8 mi Calm Calm - N/A   Overcast
5:24 AM 60.8 °F - 57.2 °F 88% 30.27 in 0.8 mi Calm Calm - N/A   Overcast
5:54 AM 60.1 °F - 59.0 °F 96% 30.27 in 0.2 mi Calm Calm - 0.01 in Fog Fog
6:54 AM 61.0 °F - 59.0 °F 93% 30.27 in 0.2 mi Calm Calm - N/A Fog Fog
7:54 AM 64.0 °F - 62.1 °F 93% 30.27 in 0.2 mi Calm Calm - N/A Fog Fog
8:22 AM 66.2 °F - 64.4 °F 94% 30.26 in 1.2 mi Calm Calm - N/A   Overcast
8:31 AM 66.2 °F - 64.4 °F 94% 30.26 in 3.0 mi Calm Calm - N/A   Overcast
8:54 AM 66.9 °F - 64.0 °F 90% 30.26 in 10.0 mi SSE 3.5 mph - N/A   Partly Cloudy
9:54 AM 73.9 °F - 60.1 °F 62% 30.25 in 10.0 mi Calm Calm - N/A   Clear
10:54 AM 80.1 °F 81.5 °F 63.0 °F 56% 30.26 in 10.0 mi NE 4.6 mph - N/A   Clear
11:54 AM 81.0 °F 82.2 °F 63.0 °F 54% 30.27 in 10.0 mi Calm Calm - N/A   Partly Cloudy
12:54 PM 81.0 °F 82.5 °F 64.0 °F 56% 30.27 in 10.0 mi NE 5.8 mph - N/A   Mostly Cloudy
1:54 PM 81.0 °F 81.6 °F 60.1 °F 49% 30.26 in 10.0 mi East 5.8 mph - N/A   Mostly Cloudy
2:54 PM 82.0 °F 83.0 °F 62.1 °F 51% 30.24 in 10.0 mi ESE 8.1 mph - N/A   Clear
3:54 PM 82.0 °F 82.7 °F 61.0 °F 49% 30.22 in 10.0 mi SSE 9.2 mph - N/A   Clear
4:54 PM 81.0 °F 81.3 °F 59.0 °F 47% 30.21 in 10.0 mi ESE 10.4 mph - N/A   Clear
5:54 PM 80.1 °F 80.6 °F 57.9 °F 47% 30.20 in 10.0 mi SSE 9.2 mph - N/A   Clear
6:54 PM 79.0 °F - 57.9 °F 48% 30.20 in 10.0 mi SSE 9.2 mph - N/A   Clear
7:54 PM 75.0 °F - 57.9 °F 55% 30.20 in 10.0 mi South 6.9 mph - N/A   Clear
8:54 PM 72.0 °F - 57.9 °F 61% 30.20 in 10.0 mi South 5.8 mph - N/A   Clear
9:54 PM 70.0 °F - 57.0 °F 63% 30.21 in 10.0 mi SSW 8.1 mph - N/A   Clear
10:54 PM 68.0 °F - 57.9 °F 70% 30.21 in 10.0 mi SSW 5.8 mph - N/A   Clear
11:54 PM 68.0 °F - 59.0 °F 73% 30.20 in 10.0 mi SSW 3.5 mph - N/A   Clear